Time,TemperatureF,DewpointF,PressureIn,WindDirection,WindDirectionDegrees,WindSpeedMPH,WindSpeedGustMPH,Humidity,HourlyPrecipIn,Conditions,Clouds,dailyrainin,SolarRadiationWatts/m^2,SoftwareType,DateUTC
2013-05-02 00:00:00,63.0,51.0,-100.00,East,90,1.0,-999.0,64,-99.99,,,-99.99,0.000000,,2013-05-02 04:00:00,
2013-05-02 00:43:00,63.0,51.0,-100.00,East,90,1.0,-999.0,64,-99.99,,,-99.99,0.000000,,2013-05-02 04:43:00,
2013-05-02 00:52:00,63.0,51.0,-100.00,East,90,1.0,-999.0,64,-99.99,,,-99.99,0.000000,,2013-05-02 04:52:00,
2013-05-02 01:00:00,60.0,50.0,-100.00,ENE,67,0.0,-999.0,67,-99.99,,,-99.99,0.000000,,2013-05-02 05:00:00,
2013-05-02 01:42:00,60.0,50.0,-100.00,ENE,67,0.0,-999.0,67,-99.99,,,-99.99,0.000000,,2013-05-02 05:42:00,
2013-05-02 01:52:00,60.0,50.0,-100.00,ENE,67,0.0,-999.0,67,-99.99,,,-99.99,0.000000,,2013-05-02 05:52:00,
2013-05-02 04:00:00,53.0,47.0,-100.00,NE,45,0.0,-999.0,80,-99.99,,,-99.99,0.000000,,2013-05-02 08:00:00,
2013-05-02 04:42:00,53.0,47.0,-100.00,NE,45,0.0,-999.0,80,-99.99,,,-99.99,0.000000,,2013-05-02 08:42:00,
2013-05-02 04:52:00,53.0,47.0,-100.00,NE,45,0.0,-999.0,80,-99.99,,,-99.99,0.000000,,2013-05-02 08:52:00,
2013-05-02 05:00:00,51.0,46.0,-100.00,NE,45,0.0,-999.0,83,-99.99,,,-99.99,0.000000,,2013-05-02 09:00:00,
2013-05-02 05:43:00,51.0,46.0,-100.00,NE,45,0.0,-999.0,83,-99.99,,,-99.99,0.000000,,2013-05-02 09:43:00,
2013-05-02 05:52:00,51.0,46.0,-100.00,NE,45,0.0,-999.0,83,-99.99,,,-99.99,0.000000,,2013-05-02 09:52:00,
2013-05-02 06:00:00,50.0,46.0,-100.00,NNE,22,0.0,-999.0,85,-99.99,,,-99.99,0.000000,,2013-05-02 10:00:00,
2013-05-02 06:42:00,50.0,46.0,-100.00,NNE,22,0.0,-999.0,85,-99.99,,,-99.99,0.000000,,2013-05-02 10:42:00,
2013-05-02 06:53:00,50.0,46.0,-100.00,NNE,22,0.0,-999.0,85,-99.99,,,-99.99,0.000000,,2013-05-02 10:53:00,
2013-05-02 07:00:00,50.0,45.0,-100.00,NNE,22,0.0,-999.0,85,-99.99,,,-99.99,8.120000,,2013-05-02 11:00:00,
2013-05-02 07:42:00,50.0,45.0,-100.00,NNE,22,0.0,-999.0,85,-99.99,,,-99.99,8.120000,,2013-05-02 11:42:00,
2013-05-02 07:52:00,50.0,45.0,-100.00,NNE,22,0.0,-999.0,85,-99.99,,,-99.99,8.120000,,2013-05-02 11:52:00,
2013-05-02 09:00:00,61.0,43.0,-100.00,ESE,112,1.0,-999.0,52,-99.99,,,-99.99,247.080002,,2013-05-02 13:00:00,
2013-05-02 09:42:00,61.0,43.0,-100.00,ESE,112,1.0,-999.0,52,-99.99,,,-99.99,247.080002,,2013-05-02 13:42:00,
2013-05-02 09:52:00,61.0,43.0,-100.00,ESE,112,1.0,-999.0,52,-99.99,,,-99.99,247.080002,,2013-05-02 13:52:00,
2013-05-02 10:00:00,64.0,43.0,-100.00,SE,135,1.0,-999.0,46,-99.99,,,-99.99,435.000000,,2013-05-02 14:00:00,
2013-05-02 10:43:00,64.0,43.0,-100.00,SE,135,1.0,-999.0,46,-99.99,,,-99.99,435.000000,,2013-05-02 14:43:00,
2013-05-02 10:52:00,64.0,43.0,-100.00,SE,135,1.0,-999.0,46,-99.99,,,-99.99,435.000000,,2013-05-02 14:52:00,
2013-05-02 11:00:00,67.0,45.0,-100.00,SSE,157,1.0,-999.0,45,-99.99,,,-99.99,573.039978,,2013-05-02 15:00:00,
2013-05-02 11:43:00,67.0,45.0,-100.00,SSE,157,1.0,-999.0,45,-99.99,,,-99.99,573.039978,,2013-05-02 15:43:00,
2013-05-02 12:00:00,70.0,47.0,-100.00,SSE,157,2.0,-999.0,44,-99.99,,,-99.99,708.760010,,2013-05-02 16:00:00,
2013-05-02 12:43:00,70.0,47.0,-100.00,SSE,157,2.0,-999.0,44,-99.99,,,-99.99,708.760010,,2013-05-02 16:43:00,
2013-05-02 12:52:00,70.0,47.0,-100.00,SSE,157,2.0,-999.0,44,-99.99,,,-99.99,708.760010,,2013-05-02 16:52:00,
2013-05-02 13:00:00,72.0,48.0,-100.00,SSE,157,1.0,-999.0,44,-99.99,,,-99.99,763.280029,,2013-05-02 17:00:00,
2013-05-02 13:42:00,72.0,48.0,-100.00,SSE,157,1.0,-999.0,44,-99.99,,,-99.99,763.280029,,2013-05-02 17:42:00,
2013-05-02 13:52:00,72.0,48.0,-100.00,SSE,157,1.0,-999.0,44,-99.99,,,-99.99,763.280029,,2013-05-02 17:52:00,
2013-05-02 14:00:00,73.0,49.0,-100.00,SSE,157,2.0,-999.0,42,-99.99,,,-99.99,853.760010,,2013-05-02 18:00:00,
2013-05-02 14:42:00,73.0,49.0,-100.00,SSE,157,2.0,-999.0,42,-99.99,,,-99.99,853.760010,,2013-05-02 18:42:00,
2013-05-02 14:52:00,73.0,49.0,-100.00,SSE,157,2.0,-999.0,42,-99.99,,,-99.99,853.760010,,2013-05-02 18:52:00,
2013-05-02 15:00:00,75.0,50.0,-100.00,SSE,157,2.0,-999.0,41,-99.99,,,-99.99,779.520020,,2013-05-02 19:00:00,
2013-05-02 15:42:00,75.0,50.0,-100.00,SSE,157,2.0,-999.0,41,-99.99,,,-99.99,779.520020,,2013-05-02 19:42:00,
2013-05-02 15:52:00,75.0,50.0,-100.00,SSE,157,2.0,-999.0,41,-99.99,,,-99.99,779.520020,,2013-05-02 19:52:00,
2013-05-02 16:00:00,75.0,47.0,-100.00,SSE,157,3.0,-999.0,37,-99.99,,,-99.99,632.200012,,2013-05-02 20:00:00,
2013-05-02 16:42:00,75.0,47.0,-100.00,SSE,157,3.0,-999.0,37,-99.99,,,-99.99,632.200012,,2013-05-02 20:42:00,
2013-05-02 16:52:00,75.0,47.0,-100.00,SSE,157,3.0,-999.0,37,-99.99,,,-99.99,632.200012,,2013-05-02 20:52:00,
2013-05-02 17:00:00,75.0,46.0,-100.00,SE,135,3.0,-999.0,35,-99.99,,,-99.99,539.400024,,2013-05-02 21:00:00,
2013-05-02 17:42:00,75.0,46.0,-100.00,SE,135,3.0,-999.0,35,-99.99,,,-99.99,539.400024,,2013-05-02 21:42:00,
2013-05-02 17:53:00,75.0,46.0,-100.00,SE,135,3.0,-999.0,35,-99.99,,,-99.99,539.400024,,2013-05-02 21:53:00,
2013-05-02 18:00:00,76.0,45.0,-100.00,SE,135,3.0,-999.0,33,-99.99,,,-99.99,493.000000,,2013-05-02 22:00:00,
2013-05-02 18:42:00,76.0,45.0,-100.00,SE,135,3.0,-999.0,33,-99.99,,,-99.99,493.000000,,2013-05-02 22:42:00,
2013-05-02 18:53:00,76.0,45.0,-100.00,SE,135,3.0,-999.0,33,-99.99,,,-99.99,493.000000,,2013-05-02 22:53:00,
2013-05-02 19:00:00,73.0,44.0,-100.00,ESE,112,4.0,-999.0,35,-99.99,,,-99.99,254.039993,,2013-05-02 23:00:00,
2013-05-02 19:42:00,73.0,44.0,-100.00,ESE,112,4.0,-999.0,35,-99.99,,,-99.99,254.039993,,2013-05-02 23:42:00,
2013-05-02 19:52:00,73.0,44.0,-100.00,ESE,112,4.0,-999.0,35,-99.99,,,-99.99,254.039993,,2013-05-02 23:52:00,
2013-05-02 21:00:00,68.0,44.0,-100.00,East,90,3.0,-999.0,42,-99.99,,,-99.99,17.400000,,2013-05-03 01:00:00,
2013-05-02 21:42:00,68.0,44.0,-100.00,East,90,3.0,-999.0,42,-99.99,,,-99.99,17.400000,,2013-05-03 01:42:00,
2013-05-02 21:52:00,68.0,44.0,-100.00,East,90,3.0,-999.0,42,-99.99,,,-99.99,17.400000,,2013-05-03 01:52:00,
2013-05-02 22:00:00,65.0,44.0,-100.00,East,90,2.0,-999.0,45,-99.99,,,-99.99,0.000000,,2013-05-03 02:00:00,
2013-05-02 22:42:00,65.0,44.0,-100.00,East,90,2.0,-999.0,45,-99.99,,,-99.99,0.000000,,2013-05-03 02:42:00,
2013-05-02 22:52:00,65.0,44.0,-100.00,East,90,2.0,-999.0,45,-99.99,,,-99.99,0.000000,,2013-05-03 02:52:00,
2013-05-02 23:00:00,63.0,44.0,-100.00,East,90,2.0,-999.0,49,-99.99,,,-99.99,0.000000,,2013-05-03 03:00:00,
2013-05-02 23:43:00,63.0,44.0,-100.00,East,90,2.0,-999.0,49,-99.99,,,-99.99,0.000000,,2013-05-03 03:43:00,
2013-05-02 23:53:00,63.0,44.0,-100.00,East,90,2.0,-999.0,49,-99.99,,,-99.99,0.000000,,2013-05-03 03:53:00,